Madison, WI

8:47 AM CST on February 06, 2016 (GMT -0600)
Dane County Regional-Truax

Weather History for KMSN - June, 2014

Change the Weather History Date:

Wednesday, June 18, 2014

  Actual Average Record
Temperature  
Mean Temperature 72 °F 68 °F  
Max Temperature 79 °F 79 °F 99 °F (1994)
Min Temperature 64 °F 57 °F 39 °F (1965)
Degree Days  
Heating Degree Days 0 1  
Month to date heating degree days 9 51  
Since 1 June heating degree days 9 51  
Since 1 July heating degree days 8057 7324  
Cooling Degree Days 7 4  
Month to date cooling degree days 75 53  
Year to date cooling degree days 126 83  
Since 1 June cooling degree days 75 53  
Growing Degree Days 22 (Base 50)    
Moisture  
Dew Point 65 °F    
Average Humidity 76    
Maximum Humidity 87    
Minimum Humidity 64    
Precipitation  
Precipitation 0.71 in 0.16 in 2.67 in (1998)
Month to date precipitation 4.69 2.73  
Year to date precipitation 16.44 14.56  
Snow  
Snow 0.00 in 0.00 in 0.00 in ()
Month to date snowfall 0.0 0.0  
Since 1 June snowfall 0.0 0.0  
Since 1 July snowfall 59.2 50.9  
Snow Depth 0.00 in    
Sea Level Pressure  
Sea Level Pressure 29.93 in    
Wind  
Wind Speed 9 mph (NE)    
Max Wind Speed 31 mph    
Max Gust Speed 44 mph    
Visibility 9 miles    
Events Rain , Thunderstorm    
T = Trace of Precipitation, MM = Missing Value Source: NWS Daily Summary

Daily Weather History Graph

Daily Weather History Graph

Search for Another Location

Airport or City:

Trip Planner

Search our weather history database for the weather conditions in past years. The results will help you decide how hot, cold, wet, or windy it might be!

Date:

Astronomy

Jun. 18, 2014 Rise Set
Actual Time 5:17 AM CDT 8:39 PM CDT
Civil Twilight 4:41 AM CDT 9:15 PM CDT
Nautical Twilight 3:55 AM CDT 10:01 PM CDT
Astronomical Twilight 2:57 AM CDT 10:59 PM CDT
Moon 12:00 AM CDT (6/18) 11:50 AM CDT (6/18)
Length of Visible Light 16h 33m
Length of Day
15h 22m
Waning Gibbous, 62% of the Moon is Illuminated
Jun 18
Waning Gibbous
Jun 19
Last Quarter
Jun 27
New
Jul 5
First Quarter
Jul 12
Full

Hourly Weather History & Observations

Time (CDT) Temp. Dew Point Humidity Pressure Visibility Wind Dir Wind Speed Gust Speed Precip Events Conditions
12:53 AM 78.1 °F 69.1 °F 74% 29.86 in 10.0 mi South 8.1 mph - N/A   Partly Cloudy
1:53 AM 79.0 °F 71.1 °F 77% 29.84 in 10.0 mi SSW 6.9 mph - N/A   Partly Cloudy
2:53 AM 75.9 °F 64.0 °F 67% 29.83 in 10.0 mi SW 6.9 mph - N/A   Partly Cloudy
3:53 AM 72.0 °F 61.0 °F 68% 29.81 in 10.0 mi WSW 4.6 mph - 0.00 in   Scattered Clouds
4:53 AM 71.6 °F 62.6 °F 73% 29.87 in 10.0 mi Calm Calm - N/A   Mostly Cloudy
5:53 AM 73.0 °F 64.0 °F 73% 29.87 in 10.0 mi ENE 4.6 mph - N/A   Overcast
6:00 AM 73.0 °F 64.9 °F 76% 29.89 in 10.0 mi East 3.5 mph - N/A   Overcast
6:38 AM 72.0 °F 66.9 °F 84% 29.87 in 10.0 mi ESE 6.9 mph - 0.00 in Rain , Thunderstorm Light Thunderstorms and Rain
6:53 AM 72.0 °F 66.9 °F 84% 29.86 in 10.0 mi East 4.6 mph - 0.00 in Thunderstorm Thunderstorm
7:08 AM 72.0 °F 68.0 °F 87% 29.89 in 10.0 mi North 11.5 mph - N/A Thunderstorm Thunderstorm
7:14 AM 72.0 °F 66.9 °F 84% 29.89 in 10.0 mi North 11.5 mph - N/A Thunderstorm Thunderstorm
7:25 AM 71.1 °F 66.9 °F 87% 29.88 in 10.0 mi NNE 16.1 mph - 0.00 in Rain , Thunderstorm Light Thunderstorms and Rain
7:36 AM 70.0 °F 66.9 °F 90% 29.87 in 10.0 mi NE 11.5 mph - 0.00 in Rain , Thunderstorm Light Thunderstorms and Rain
7:53 AM 70.0 °F 66.0 °F 87% 29.92 in 7.0 mi WNW 23.0 mph 41.4 mph 0.00 in Rain , Thunderstorm Light Thunderstorms and Rain
7:57 AM 68.0 °F 64.0 °F 87% 29.98 in 1.0 mi NNW 25.3 mph 43.7 mph 0.00 in Rain , Thunderstorm Thunderstorms and Rain
8:06 AM 64.9 °F 63.0 °F 93% 29.93 in 1.0 mi North 8.1 mph 31.1 mph 0.47 in Rain , Thunderstorm Thunderstorms and Rain
8:12 AM 64.9 °F 63.0 °F 93% 29.96 in 2.0 mi North 18.4 mph 24.2 mph 0.55 in Rain , Thunderstorm Thunderstorms and Rain
8:20 AM 64.9 °F 62.1 °F 90% 29.98 in 3.0 mi North 24.2 mph 43.7 mph 0.58 in Rain , Thunderstorm Thunderstorms and Rain
8:25 AM 64.9 °F 62.1 °F 90% 30.00 in 6.0 mi North 17.3 mph 41.4 mph 0.58 in Rain , Thunderstorm Light Thunderstorms and Rain
8:36 AM 64.9 °F 60.1 °F 84% 30.00 in 10.0 mi NNE 19.6 mph - 0.59 in Rain , Thunderstorm Light Thunderstorms and Rain
8:53 AM 64.0 °F 60.1 °F 87% 29.98 in 9.0 mi ENE 16.1 mph - 0.59 in Rain , Thunderstorm Light Thunderstorms and Rain
9:46 AM 64.9 °F 62.1 °F 90% 29.99 in 7.0 mi ENE 10.4 mph - 0.09 in Rain Light Rain
9:53 AM 64.9 °F 62.1 °F 90% 29.98 in 10.0 mi ENE 11.5 mph - 0.09 in Rain Light Rain
10:53 AM 66.9 °F 62.1 °F 84% 29.86 in 10.0 mi ESE 15.0 mph - 0.03 in   Overcast
11:53 AM 71.1 °F 64.0 °F 78% 29.88 in 10.0 mi South 9.2 mph - N/A   Overcast
12:53 PM 72.0 °F 63.0 °F 73% 29.92 in 10.0 mi South 6.9 mph - N/A   Overcast
1:53 PM 73.0 °F 64.9 °F 76% 29.93 in 10.0 mi NNW 3.5 mph - 0.00 in   Mostly Cloudy
2:53 PM 75.0 °F 66.0 °F 73% 29.95 in 10.0 mi NNE 5.8 mph - 0.00 in   Mostly Cloudy
3:53 PM 75.9 °F 66.0 °F 71% 29.95 in 10.0 mi NNE 4.6 mph - N/A   Mostly Cloudy
4:53 PM 77.0 °F 66.0 °F 69% 29.96 in 10.0 mi NE 9.2 mph - N/A   Mostly Cloudy
5:53 PM 77.0 °F 64.9 °F 66% 29.96 in 10.0 mi ENE 9.2 mph - N/A   Mostly Cloudy
6:53 PM 75.9 °F 64.9 °F 69% 29.96 in 10.0 mi ENE 8.1 mph - N/A   Mostly Cloudy
7:53 PM 75.0 °F 64.9 °F 71% 29.96 in 10.0 mi East 10.4 mph - N/A   Mostly Cloudy
8:53 PM 72.0 °F 64.9 °F 78% 29.99 in 10.0 mi East 6.9 mph - N/A   Mostly Cloudy
9:53 PM 71.1 °F 64.0 °F 78% 30.01 in 10.0 mi East 11.5 mph - N/A   Mostly Cloudy
10:53 PM 69.1 °F 62.1 °F 78% 30.02 in 10.0 mi East 12.7 mph - N/A   Mostly Cloudy
11:53 PM 68.0 °F 61.0 °F 78% 30.03 in 10.0 mi East 11.5 mph - N/A   Overcast